Fort Payne, AL

3:20 AM CDT on March 26, 2017 (GMT -0500)
Fort Payne

Weather History for K4A9 - October, 2012

Change the Weather History Date:

Friday, October 5, 2012

  Actual Average (KRMG) Record (KRMG)
Temperature  
Mean Temperature 64 °F -  
Max Temperature 78 °F 75 °F 91 °F (2002)
Min Temperature 50 °F 51 °F 35 °F (2014)
Degree Days  
Heating Degree Days 1    
Growing Degree Days 14 (Base 50)    
Moisture  
Dew Point 53 °F    
Average Humidity 74    
Maximum Humidity 94    
Minimum Humidity 36    
Precipitation  
Precipitation 0.00 in - - ()
Sea Level Pressure  
Sea Level Pressure 30.14 in    
Wind  
Wind Speed 1 mph (SW)    
Max Wind Speed 10 mph    
Max Gust Speed -    
Visibility 7 miles    
Events      
Averages and records for this station are not official NWS values.
T = Trace of Precipitation, MM = Missing Value Source: NWS Daily Summary

Daily Weather History Graph

Daily Weather History Graph

Search for Another Location

Airport or City:

Trip Planner

Search our weather history database for the weather conditions in past years. The results will help you decide how hot, cold, wet, or windy it might be!

Date:

Astronomy

Oct. 05, 2012 Rise Set
Actual Time 6:40 AM CDT 6:20 PM CDT
Civil Twilight 6:15 AM CDT 6:45 PM CDT
Nautical Twilight 5:46 AM CDT 7:15 PM CDT
Astronomical Twilight 5:17 AM CDT 7:44 PM CDT
Moon 9:55 PM CDT (10/5) 11:36 AM CDT (10/5)
Length of Visible Light 12h 30m
Length of Day
11h 39m
Waning Gibbous, 74% of the Moon is Illuminated
Oct 5
Waning Gibbous
Oct 8
Last Quarter
Oct 15
New
Oct 21
First Quarter
Oct 29
Full

Hourly Weather History & Observations

Time (CDT) Temp. Dew Point Humidity Pressure Visibility Wind Dir Wind Speed Gust Speed Precip Events Conditions
12:15 AM 53.6 °F 51.8 °F 94% 30.23 in 3.0 mi Calm Calm - N/A   Clear
12:35 AM 53.6 °F 51.8 °F 94% 30.23 in 4.0 mi Calm Calm - N/A   Clear
12:55 AM 53.6 °F 51.8 °F 94% 30.23 in 2.5 mi Calm Calm - N/A   Clear
1:15 AM 53.6 °F 51.8 °F 94% 30.22 in 5.0 mi Calm Calm - N/A   Clear
1:35 AM 53.6 °F 50.0 °F 88% 30.22 in 2.5 mi Calm Calm - N/A   Clear
1:55 AM 53.6 °F 51.8 °F 94% 30.22 in 4.0 mi Calm Calm - N/A   Clear
2:15 AM 51.8 °F 50.0 °F 94% 30.21 in 3.0 mi Calm Calm - N/A   Clear
2:35 AM 51.8 °F 50.0 °F 94% 30.21 in 3.0 mi Calm Calm - N/A   Clear
2:55 AM 51.8 °F 50.0 °F 94% 30.21 in 3.0 mi Calm Calm - N/A   Clear
3:15 AM 51.8 °F 50.0 °F 94% 30.21 in 4.0 mi Calm Calm - N/A   Clear
3:35 AM 51.8 °F 50.0 °F 94% 30.20 in 3.0 mi Calm Calm - N/A   Clear
3:55 AM 51.8 °F 50.0 °F 94% 30.20 in 4.0 mi Calm Calm - N/A   Clear
4:15 AM 51.8 °F 50.0 °F 94% 30.21 in 3.0 mi Calm Calm - N/A   Clear
4:35 AM 51.8 °F 50.0 °F 94% 30.21 in 4.0 mi Calm Calm - N/A   Clear
4:55 AM 51.8 °F 50.0 °F 94% 30.21 in 4.0 mi Calm Calm - N/A   Clear
5:15 AM 51.8 °F 50.0 °F 94% 30.21 in 3.0 mi Calm Calm - N/A   Clear
5:35 AM 50.0 °F 48.2 °F 94% 30.21 in 4.0 mi Calm Calm - N/A   Clear
5:55 AM 50.0 °F 48.2 °F 94% 30.21 in 4.0 mi Calm Calm - N/A   Clear
6:15 AM 50.0 °F 48.2 °F 94% 30.21 in 5.0 mi Calm Calm - N/A   Clear
6:35 AM 50.0 °F 48.2 °F 94% 30.21 in 5.0 mi Calm Calm - N/A   Clear
6:55 AM 50.0 °F 48.2 °F 94% 30.21 in 3.0 mi Calm Calm - N/A   Clear
7:15 AM 50.0 °F 48.2 °F 94% 30.22 in 3.0 mi Calm Calm - N/A   Clear
7:35 AM 51.8 °F 50.0 °F 94% 30.21 in 3.0 mi Calm Calm - N/A   Clear
7:55 AM 53.6 °F 51.8 °F 94% 30.21 in 4.0 mi Calm Calm - N/A   Clear
8:15 AM 55.4 °F 53.6 °F 94% 30.21 in 5.0 mi Calm Calm - N/A   Clear
8:35 AM 59.0 °F 57.2 °F 94% 30.21 in 7.0 mi Calm Calm - N/A   Clear
8:55 AM 60.8 °F 57.2 °F 88% 30.21 in 10.0 mi Calm Calm - N/A   Clear
9:15 AM 64.4 °F 57.2 °F 77% 30.21 in 10.0 mi NNE 3.5 mph - N/A   Clear
9:35 AM 66.2 °F 57.2 °F 73% 30.20 in 10.0 mi Calm Calm - N/A   Clear
9:55 AM 69.8 °F 57.2 °F 64% 30.20 in 10.0 mi Calm Calm - N/A   Clear
10:15 AM 71.6 °F 55.4 °F 57% 30.19 in 10.0 mi Calm Calm - N/A   Clear
10:35 AM 73.4 °F 53.6 °F 50% 30.18 in 10.0 mi Calm Calm - N/A   Clear
10:55 AM 75.2 °F 53.6 °F 47% 30.18 in 10.0 mi Calm Calm - N/A   Clear
11:35 AM 77.0 °F 51.8 °F 41% 30.17 in 10.0 mi Calm Calm - N/A   Clear
11:55 AM 77.0 °F 53.6 °F 44% 30.16 in 10.0 mi Calm Calm - N/A   Clear
12:15 PM 77.0 °F 51.8 °F 41% 30.15 in 10.0 mi Calm Calm - N/A   Scattered Clouds
12:35 PM 78.8 °F 51.8 °F 39% 30.14 in 10.0 mi SW 8.1 mph - N/A   Scattered Clouds
12:55 PM 77.0 °F 51.8 °F 41% 30.13 in 10.0 mi SW 6.9 mph - N/A   Scattered Clouds
1:35 PM 78.8 °F 53.6 °F 42% 30.11 in 10.0 mi West 4.6 mph - N/A   Scattered Clouds
1:55 PM 78.8 °F 51.8 °F 39% 30.10 in 10.0 mi SSW 5.8 mph - N/A   Scattered Clouds
2:15 PM 78.8 °F 50.0 °F 36% 30.09 in 10.0 mi West 4.6 mph - N/A   Clear
2:35 PM 78.8 °F 50.0 °F 36% 30.08 in 10.0 mi West 4.6 mph - N/A   Clear
2:55 PM 78.8 °F 50.0 °F 36% 30.07 in 10.0 mi SW 10.4 mph - N/A   Clear
3:15 PM 78.8 °F 50.0 °F 36% 30.07 in 10.0 mi WSW 5.8 mph - N/A   Clear
3:35 PM 78.8 °F 50.0 °F 36% 30.06 in 10.0 mi South 6.9 mph - N/A   Clear
3:55 PM 78.8 °F 50.0 °F 36% 30.05 in 10.0 mi SSW 6.9 mph - N/A   Clear
4:15 PM 78.8 °F 50.0 °F 36% 30.05 in 10.0 mi SW 8.1 mph - N/A   Clear
4:35 PM 78.8 °F 51.8 °F 39% 30.04 in 10.0 mi SW 5.8 mph - N/A   Clear
4:55 PM 78.8 °F 51.8 °F 39% 30.03 in 10.0 mi SSW 4.6 mph - N/A   Clear
5:15 PM 77.0 °F 51.8 °F 41% 30.03 in 10.0 mi South 3.5 mph - N/A   Clear
5:35 PM 77.0 °F 53.6 °F 44% 30.03 in 10.0 mi South 3.5 mph - N/A   Clear
5:55 PM 73.4 °F 53.6 °F 50% 30.04 in 10.0 mi Calm Calm - N/A   Clear
6:15 PM 69.8 °F 57.2 °F 64% 30.04 in 10.0 mi Calm Calm - N/A   Clear
6:35 PM 66.2 °F 57.2 °F 73% 30.04 in 10.0 mi Calm Calm - N/A   Clear
6:55 PM 64.4 °F 57.2 °F 77% 30.04 in 10.0 mi Calm Calm - N/A   Clear
7:15 PM 62.6 °F 57.2 °F 82% 30.03 in 10.0 mi Calm Calm - N/A   Clear
7:35 PM 62.6 °F 57.2 °F 82% 30.03 in 10.0 mi Calm Calm - N/A   Clear
7:55 PM 60.8 °F 57.2 °F 88% 30.03 in 10.0 mi Calm Calm - N/A   Clear
8:15 PM 60.8 °F 57.2 °F 88% 30.03 in 7.0 mi Calm Calm - N/A   Clear
8:35 PM 59.0 °F 55.4 °F 88% 30.04 in 7.0 mi Calm Calm - N/A   Clear
8:55 PM 59.0 °F 55.4 °F 88% 30.04 in 7.0 mi Calm Calm - N/A   Clear
9:15 PM 59.0 °F 55.4 °F 88% 30.05 in 7.0 mi Calm Calm - N/A   Clear
9:35 PM 59.0 °F 55.4 °F 88% 30.06 in 7.0 mi Calm Calm - N/A   Scattered Clouds
9:55 PM 59.0 °F 55.4 °F 88% 30.06 in 5.0 mi Calm Calm - N/A   Scattered Clouds
10:35 PM 59.0 °F 55.4 °F 88% 30.07 in 7.0 mi Calm Calm - N/A   Mostly Cloudy
10:55 PM 57.2 °F 55.4 °F 94% 30.07 in 5.0 mi NNE 3.5 mph - N/A   Mostly Cloudy
11:15 PM 59.0 °F 55.4 °F 88% 30.07 in 7.0 mi Calm Calm - N/A   Mostly Cloudy
11:35 PM 57.2 °F 55.4 °F 94% 30.07 in 7.0 mi Calm Calm - N/A   Mostly Cloudy
11:55 PM 57.2 °F 55.4 °F 94% 30.06 in 7.0 mi Calm Calm - N/A   Mostly Cloudy